CAPE
3281 3249 3218 3330 2828 2931 3051 3115 3763 2763 4141 2962 3801 3214 3270 3295 3313 3603 3117 3012 3577 3044 2101 2192 1728 1389 1471 1024 774 807 903 714 463 402 1137 1405 917 413 120 416 271 415 42
3534 3438 3144 3238 3512 3341 2906 3175 3483 4098 3182 4257 3687 3381 3411 3162 3294 3285 3316 2545 3323 3051 2514 1982 2011 1418 1654 1782 1770 890 744 1084 893 1100 845 1159 1253 913 1083 1080 331 5 251
3458 3411 3312 3204 3240 3475 3540 3052 3281 3422 3838 3286 3993 3906 3245 3180 3159 3273 3259 3226 2335 3197 3009 2522 2147 1706 1556 930 1165 1057 988 1143 1408 673 758 1002 1294 1315 1012 1020 1278 805 636
3178 3450 3287 3365 3370 3410 3546 3685 3265 3292 3454 3668 3533 3472 3818 3317 3249 3170 3286 3559 3216 2899 3257 3000 2712 2161 1534 1589 1231 917 1138 1079 713 847 677 481 982 948 871 681 729 735 602
2680 3203 3359 3372 3509 3516 3619 3684 3838 3592 3421 3551 3630 3611 3506 3697 3348 3228 3249 3515 3493 3051 2970 3348 3043 2723 2097 1607 1387 1531 786 972 876 428 333 527 595 816 648 618 291 236 493
2758 2929 3185 3459 3485 3835 3680 3775 3856 3946 3837 3782 3820 3703 3687 3585 3298 2789 2957 3320 3556 3367 3272 3215 3204 2631 2170 1420 1268 1067 1302 734 499 247 345 485 638 875 1429 604 347 343 307
2998 3261 3311 3404 3565 3737 3989 3889 3846 4036 4051 4029 4011 3966 3710 3695 3135 2018 1778 3129 3227 3283 3241 3261 3317 3020 2484 1943 696 758 696 888 721 641 931 1312 1814 1583 1467 1242 1084 981 533
3880 3601 3805 3862 3686 3922 4064 4098 4124 4050 4163 4119 4174 4101 4021 3862 3240 1315 1017 2542 3087 3145 3203 3198 3254 3169 2931 2687 1847 937 806 611 464 692 1364 1179 1740 1599 1542 1529 1210 1138 1006
3464 3920 3696 4044 4027 4027 4135 4153 4213 4279 4213 4311 4243 4271 4191 4029 3010 1523 306 2232 2718 2922 3162 3299 3212 3243 3087 1898 2513 1770 1139 1046 742 428 548 1126 796 782 1343 918 923 577 510
3597 3435 3858 3783 3952 4068 4190 4341 4359 4363 4351 4304 4316 4274 4146 4196 3774 1228 325 2746 2633 2628 2809 3221 2564 3060 3035 1073 2275 2488 1924 1406 1195 637 131 21 17 72 177 763 573 417 241
3601 3745 3984 4023 3890 4093 4250 4448 4497 4487 4446 4425 4358 4341 4339 4179 4138 2156 89 3016 3165 2803 2656 2797 3012 1689 1723 648 1019 2540 2447 2220 1388 1062 381 182 142 146 80 148 487 319 209
4223 4064 4173 4513 3956 3938 4406 4510 4536 4527 4507 4445 4402 4376 4387 4323 3583 3446 110 239 2970 3198 2949 2673 2775 2673 493 115 0 2010 2330 2128 1970 1214 462 201 162 136 257 164 165 286 281
5087 4912 4472 4704 4525 4143 4588 4486 4512 4599 4527 4504 4405 4385 4308 4211 4499 3717 1741 0 2 1076 3224 3060 855 1614 817 0 24 589 495 1660 2181 1483 694 375 214 165 118 146 52 213 135
5233 5322 4947 4843 4661 4528 4171 4448 4330 4357 4512 4555 4458 4334 4167 4380 4427 4109 2282 22 0 81 1096 1796 2406 674 9 574 149 4 1334 2043 2101 1469 973 558 334 249 234 171 114 70 3
4830 4986 5113 4685 4587 4739 4590 3995 4478 4403 4237 4382 4386 4083 3908 4200 2952 360 1432 3379 1812 1200 1868 2515 2557 2222 2408 778 399 665 1441 1819 1626 1263 733 330 225 156 65 26 1 0 1
4644 4244 4059 3859 4121 4327 4563 4501 2899 2584 738 12 6 908 2988 322 0 29 1004 1561 1051 1380 819 2406 2539 2011 1436 1201 587 860 1208 1160 1121 756 274 143 70 83 5 0 0 0 0
3975 4549 4082 3379 3944 4194 3976 4525 4424 0 2 0 0 0 0 0 2 2 0 92 800 0 1728 1710 2172 1865 1080 1043 642 780 732 666 532 222 135 63 3 23 0 0 0 0 3
1945 659 2434 2110 2271 2547 2547 2334 2473 2480 2816 1832 51 0 0 0 0 1 1 0 33 0 1209 1538 1432 1403 822 422 246 320 264 238 291 212 96 42 65 0 0 0 0 0 0
2348 1587 1500 1070 984 783 1073 862 640 689 455 264 214 12 0 0 0 0 1 2 4 109 141 613 1196 1132 706 301 127 64 44 90 175 124 139 17 0 0 0 0 0 0 0
667 178 564 934 698 810 728 717 744 569 405 281 13 0 0 0 0 0 0 0 3 1 0 1 0 0 203 177 75 0 3 16 49 61 2 1 0 0 0 0 0 0 0
491 672 263 440 473 530 534 499 355 348 124 34 1 0 1 0 8 21 18 0 0 19 67 9 15 19 14 11 25 5 0 1 6 0 15 0 0 0 0 0 0 0 0
879 743 664 280 201 247 334 174 106 9 0 0 4 0 0 4 15 28 43 32 29 80 109 62 9 7 2 2 1 1 5 3 20 5 0 1 0 0 0 0 0 0 0
217 370 432 347 109 33 1 2 5 4 3 5 19 19 11 1 5 8 7 13 24 19 38 33 128 93 46 37 2 14 11 9 20 14 2 11 11 9 0 0 0 0 0
18 15 18 0 0 0 0 10 6 1 3 4 3 2 5 2 14 14 17 30 31 14 43 3 6 16 0 0 0 0 0 7 17 35 25 11 0 0 0 0 0 0 0
0 0 0 0 0 1 2 1 3 2 3 3 3 3 3 3 3 1 0 38 44 50 18 40 1 0 0 0 0 0 0 0 5 4 0 0 0 0 0 0 0 0 0
0 5 0 1 17 8 2 2 3 5 5 5 5 6 4 3 2 4 6 5 0 31 113 127 109 87 10 5 13 0 0 1 0 0 0 0 0 0 0 0 0 0 0
CIN
-81 -102 -80 -56 -76 -48 -20 -24 -12 -34 -18 -44 -21 -37 -29 -14 -8 -9 -10 -12 -9 -16 -65 -63 -122 -144 -112 -111 -128 -99 -71 -82 -87 -108 -51 -87 -75 -99 -129 -63 -120 -98 -98
-67 -62 -72 -57 -41 -40 -54 -24 -19 -12 -37 -18 -32 -27 -18 -28 -10 -7 -6 -12 -11 -21 -55 -82 -83 -134 -124 -114 -78 -142 -117 -62 -79 -45 -65 -73 -59 -95 -80 -53 -54 -3 -59
-57 -64 -64 -70 -61 -41 -44 -74 -39 -34 -18 -27 -15 -17 -22 -23 -29 -8 -6 -5 -36 -14 -20 -53 -63 -107 -141 -207 -177 -157 -138 -94 -58 -144 -114 -78 -63 -66 -68 -56 -38 -43 -48
-81 -72 -92 -83 -69 -64 -46 -40 -73 -65 -56 -26 -28 -27 -11 -14 -25 -27 -10 -3 -7 -14 -12 -15 -43 -81 -170 -193 -209 -255 -157 -154 -211 -159 -179 -180 -65 -86 -86 -84 -84 -58 -35
-139 -129 -146 -131 -102 -73 -60 -49 -44 -64 -76 -72 -50 -31 -26 -4 -16 -28 -20 -4 -4 -23 -19 -14 -18 -60 -120 -206 -228 -194 -298 -205 -198 -291 -284 -175 -130 -66 -79 -104 -107 -80 -55
-159 -164 -176 -160 -146 -89 -90 -83 -59 -50 -54 -40 -36 -46 -35 -29 -47 -82 -55 -14 -5 -7 -12 -12 -12 -66 -141 -276 -276 -284 -230 -318 -325 -348 -277 -227 -189 -66 -65 -115 -129 -85 -41
-157 -160 -160 -183 -169 -143 -105 -101 -89 -73 -67 -61 -54 -55 -89 -90 -127 -265 -275 -64 -40 -19 -22 -20 -6 -23 -100 -196 -430 -349 -324 -273 -295 -308 -205 -101 -40 -59 -55 -62 -50 -45 -54
-121 -146 -153 -147 -162 -135 -132 -125 -105 -100 -78 -86 -63 -68 -79 -132 -179 -504 -529 -185 -103 -83 -60 -63 -38 -24 -51 -102 -233 -378 -374 -425 -491 -363 -188 -176 -87 -71 -54 -60 -54 -38 -35
-166 -165 -182 -146 -144 -147 -146 -137 -104 -86 -103 -92 -92 -74 -98 -140 -253 -534 -859 -261 -171 -155 -113 -77 -74 -61 -66 -254 -113 -246 -340 -359 -354 -410 -301 -159 -212 -159 -49 -62 -31 -62 -33
-186 -216 -190 -199 -182 -180 -161 -115 -85 -86 -98 -85 -95 -110 -130 -147 -182 -705 -968 -181 -193 -215 -162 -101 -197 -110 -96 -501 -124 -63 -152 -267 -248 -348 -525 -644 -538 -371 -251 -110 -84 -88 -92
-204 -198 -207 -223 -237 -202 -137 -81 -72 -64 -60 -71 -85 -98 -118 -168 -186 -502 -1225 -213 -206 -229 -227 -189 -157 -444 -391 -651 -452 -88 -133 -113 -244 -228 -351 -395 -380 -346 -415 -281 -82 -96 -137
-99 -165 -204 -170 -217 -167 -120 -73 -53 -40 -49 -63 -73 -96 -123 -148 -240 -254 -808 -432 -211 -84 -119 -143 -114 -155 -755 -769 -0 -159 -99 -84 -99 -223 -350 -406 -366 -331 -196 -176 -113 -26 -40
-39 -82 -149 -109 -128 -145 -70 -74 -42 -27 -39 -63 -80 -95 -132 -120 -91 -182 -545 -0 -46 -574 -94 -78 -503 -218 -512 -0 -532 -553 -532 -108 -9 -30 -211 -345 -312 -215 -163 -111 -118 -32 -48
-28 -24 -74 -68 -80 -78 -80 -66 -56 -49 -43 -48 -53 -79 -89 -61 -55 -67 -383 -181 -0 -464 -575 -316 -124 -580 -1010 -570 -379 -113 -210 -42 -28 -66 -69 -117 -89 -60 -41 -82 -63 -92 -124
-62 -37 -22 -49 -69 -39 -36 -65 -52 -44 -43 -41 -37 -44 -37 -31 -189 -907 -528 -115 -469 -641 -346 -164 -99 -130 -78 -496 -583 -422 -161 -60 -54 -37 -83 -78 -50 -53 -44 -99 -72 -0 -76
-55 -71 -79 -70 -42 -39 -30 -26 -194 -218 -683 -334 -88 -392 -153 -182 -0 -325 -594 -364 -462 -426 -586 -172 -142 -203 -285 -294 -412 -254 -60 -71 -65 -63 -142 -143 -92 -20 -64 -0 -0 -0 -0
-85 -55 -38 -70 -1 -14 -31 -2 -13 -0 -0 -0 -0 -0 -0 -0 -0 -0 -0 -875 -450 -0 -150 -168 -107 -162 -333 -269 -318 -263 -187 -124 -142 -206 -203 -141 -190 -17 -0 -0 -0 -0 -88
-277 -481 -131 -213 -175 -136 -179 -222 -171 -162 -99 -252 -111 -0 -0 -0 -0 -0 -0 -0 -156 -0 -197 -83 -122 -125 -221 -302 -343 -183 -209 -264 -187 -230 -290 -203 -15 -0 -0 -0 -0 -0 -0
-103 -236 -295 -397 -402 -408 -342 -377 -417 -426 -489 -564 -603 -165 -0 -0 -0 -0 -0 -0 -0 -260 -566 -237 -38 -49 -112 -244 -255 -216 -243 -203 -166 -198 -164 -198 -0 -0 -0 -10 -0 -0 -0
-386 -561 -384 -293 -333 -294 -302 -291 -289 -332 -374 -432 -142 -0 -0 -0 -0 -0 -0 -0 -0 -0 -0 -0 -0 -0 -156 -145 -170 -15 -14 -414 -221 -197 -0 -35 -0 -0 -0 -0 -0 -0 -0
-245 -207 -323 -271 -264 -244 -243 -254 -293 -308 -404 -472 -3 -0 -0 -0 -0 -0 -0 -0 -0 -0 -394 -1 -0 -0 -1 -2 -13 -38 -0 -0 -71 -4 -24 -1 -0 -0 -0 -0 -0 -0 -0
-26 -52 -83 -211 -261 -240 -221 -290 -339 -161 -0 -0 -0 -0 -0 -1 -0 -1 -0 -0 -115 -283 -243 -77 -1 -28 -31 -88 -54 -0 -92 -21 -47 -30 -17 -43 -0 -0 -0 -0 -0 -0 -0
-76 -60 -57 -96 -206 -298 -76 -0 -0 -0 -0 -0 -0 -0 -0 -0 -0 -0 -0 -0 -0 -0 -82 -6 -167 -0 -14 -65 -79 -125 -117 -93 -44 -66 -85 -72 -120 -145 -0 -0 -0 -0 -0
-99 -31 -65 -3 -0 -0 -0 -0 -0 -0 -0 -0 -0 -0 -0 -0 -0 -0 -0 -1 -0 -0 -0 -49 -1 -24 -0 -17 -0 -14 -0 -46 -56 -54 -82 -100 -23 -0 -0 -0 -0 -0 -0
-0 -0 -0 -0 -0 -0 -0 -0 -0 -0 -0 -0 -0 -0 -0 -0 -0 -0 -0 -1 -13 -95 -24 -31 -6 -0 -0 -0 -6 -2 -0 -3 -46 -78 -0 -0 -0 -0 -0 -0 -0 -0 -0
-0 -0 -0 -1 -0 -0 -0 -0 -0 -0 -0 -0 -0 -0 -0 -0 -0 -0 -0 -0 -0 -6 -16 -28 -16 -18 -35 -40 -33 -0 -0 -51 -0 -0 -0 -0 -0 -0 -0 -0 -0 -0 -0
Wind_Speed
23 21 20 18 19 17 14 14 11 11 7 10 10 14 13 12 12 10 10 9 11 10 9 7 10 7 4 3 4 3 3 3 2 4 2 4 4 7 4 3 4 4 7
20 19 19 18 18 19 18 16 15 12 13 10 9 11 13 14 13 14 14 13 11 14 13 10 10 8 7 5 2 5 4 3 4 5 2 2 3 5 6 6 4 4 4
19 19 19 20 19 19 19 19 16 16 14 15 12 13 14 14 15 14 14 14 13 13 12 12 9 9 8 7 6 5 5 3 3 3 3 1 3 5 5 4 4 6 6
21 20 20 20 20 19 18 18 19 18 17 17 17 15 14 15 15 15 15 14 14 12 13 13 14 13 12 11 9 8 5 5 6 4 4 4 4 5 7 8 5 5 5
20 22 22 20 19 18 18 18 18 19 18 18 17 16 16 16 14 16 16 17 17 16 14 13 14 16 17 16 10 10 9 7 5 7 5 4 4 3 7 5 4 4 6
20 21 20 20 19 19 19 19 18 18 18 17 18 18 18 15 19 20 18 15 16 17 16 16 15 17 18 21 18 17 13 11 11 8 6 7 8 6 4 5 5 4 3
18 17 18 19 19 19 18 19 18 19 18 18 18 19 20 20 20 22 23 18 17 17 18 16 15 14 16 16 19 18 13 16 16 12 10 8 5 7 6 5 4 3 3
11 15 16 16 18 18 19 19 19 17 18 18 18 19 19 19 19 21 23 22 19 20 20 20 18 18 17 19 17 18 19 15 15 11 12 10 5 5 5 6 5 3 1
14 13 14 15 16 18 20 19 17 16 17 17 17 18 20 19 19 21 19 19 20 22 20 20 20 20 21 22 19 19 19 18 13 15 10 7 8 6 7 5 5 5 3
16 16 12 14 16 18 18 17 16 15 16 14 17 18 20 20 19 21 20 15 19 17 18 19 21 23 20 21 21 17 16 16 15 13 11 6 7 6 8 6 7 5 4
16 14 14 15 16 15 13 14 14 15 14 16 16 16 19 20 21 19 22 19 19 17 16 16 17 23 20 20 24 19 21 14 17 14 10 8 7 7 6 6 7 5 7
8 14 13 12 12 12 13 12 13 13 14 15 15 15 14 17 17 15 19 26 18 15 16 13 14 16 20 20 20 21 17 17 12 12 10 10 10 10 8 5 6 4 3
6 8 10 10 11 11 11 12 10 12 12 13 13 12 12 11 11 17 16 20 23 15 15 13 6 10 22 22 26 23 18 12 12 12 12 12 12 8 8 8 9 7 4
4 6 7 8 9 11 9 10 11 11 11 11 10 11 10 9 10 11 9 11 19 16 21 15 14 6 11 11 15 16 17 15 14 13 11 8 6 8 8 7 7 8 6
5 6 6 7 8 9 9 8 10 11 11 10 11 11 10 9 5 5 5 7 11 15 15 13 14 14 14 8 9 14 16 15 14 10 11 8 7 7 6 7 6 5 4
5 5 6 6 7 7 8 8 7 5 9 12 12 7 3 10 8 8 7 10 8 10 9 13 14 13 13 13 12 13 14 15 13 11 9 8 7 8 9 7 7 8 8
3 2 6 8 6 10 9 8 9 11 13 15 12 10 10 5 9 9 8 12 8 10 8 11 13 13 13 13 13 15 14 13 14 11 11 9 12 11 13 11 12 10 8
3 2 4 8 7 8 7 7 6 7 4 3 8 9 8 8 8 8 11 6 5 5 10 12 13 13 12 13 14 14 13 12 13 13 13 11 12 13 13 10 10 10 9
3 6 7 6 6 6 5 6 6 6 5 4 4 3 7 9 7 9 8 2 7 8 7 10 10 11 13 15 16 16 18 17 15 14 11 11 11 11 12 10 11 12 10
5 4 4 6 5 4 3 4 5 4 2 3 5 6 7 7 5 6 2 1 4 6 8 10 10 11 11 13 15 17 16 13 17 13 12 14 12 10 12 14 11 8 8
6 4 8 6 5 5 4 4 4 5 4 5 5 4 2 3 5 5 5 3 4 6 6 5 7 8 4 5 12 15 11 19 13 12 12 13 13 12 11 10 10 8 8
5 5 6 9 7 7 7 8 8 8 8 6 4 4 4 3 4 2 3 4 5 5 4 5 3 4 1 5 8 8 9 8 9 10 10 11 12 11 9 7 9 7 8
10 9 8 8 9 9 11 10 9 8 7 6 7 7 7 7 7 6 6 6 5 5 4 4 4 1 2 3 5 6 7 8 7 7 8 10 10 9 7 5 5 5 6
12 12 12 11 9 11 10 11 8 10 9 8 9 8 8 8 7 7 6 6 5 4 2 2 3 3 4 5 4 4 4 4 5 6 8 7 6 6 4 3 5 5 6
10 11 9 10 11 11 11 11 9 8 8 8 7 7 9 10 11 11 12 8 5 2 2 2 3 4 5 6 4 4 10 14 9 9 6 6 7 9 6 5 4 4 4
13 11 11 9 10 10 10 9 8 8 8 8 8 8 10 11 10 10 11 14 14 10 3 2 4 5 7 8 9 10 10 9 8 10 6 5 5 5 5 4 5 4 5
Wind_Direction
198 197 200 201 200 206 214 202 217 215 212 222 182 187 189 190 197 198 207 199 194 203 196 207 197 209 239 232 187 214 202 184 229 294 192 131 118 124 156 172 152 173 189
196 199 203 201 202 203 209 212 203 210 210 220 196 192 189 194 197 202 204 215 206 199 205 206 195 199 221 244 272 198 198 219 187 232 228 153 161 170 169 176 206 244 233
196 199 202 208 205 206 205 209 211 204 217 209 207 202 200 200 201 204 209 212 225 208 204 207 211 191 203 221 215 226 189 183 208 196 252 244 176 169 181 187 199 218 262
192 199 205 206 209 209 207 207 211 214 206 215 215 206 205 206 206 206 206 211 217 232 208 209 206 206 202 203 216 208 220 191 193 204 209 227 219 191 178 184 210 210 228
197 199 205 206 207 210 208 210 211 211 216 210 213 217 209 209 211 209 209 208 212 217 228 210 212 210 205 205 199 213 201 205 198 203 216 214 219 212 188 193 183 197 211
197 203 200 202 205 207 211 210 211 213 216 216 214 212 216 215 208 201 205 214 212 216 219 224 217 210 207 200 203 200 198 195 211 211 209 204 208 211 171 178 177 186 196
201 200 201 198 202 204 206 212 212 213 211 216 215 214 216 219 209 200 200 211 215 217 218 221 223 220 205 205 207 206 208 205 205 203 215 213 182 194 168 164 178 152 180
197 202 199 196 200 201 205 210 212 211 213 214 216 218 222 222 210 204 201 215 217 218 218 216 217 223 211 206 201 206 212 214 216 208 214 217 194 187 163 161 152 159 125
209 209 204 197 198 201 206 208 208 210 214 214 217 218 224 229 211 206 195 216 225 226 222 219 217 219 217 196 205 206 212 217 204 218 224 200 178 167 154 142 174 163 198
208 212 205 207 206 208 206 206 207 213 217 217 220 222 224 231 221 208 196 220 229 229 230 228 217 222 212 189 203 209 211 213 209 206 214 185 181 176 193 192 171 183 144
206 205 205 205 213 212 208 202 205 211 218 219 226 225 229 230 233 207 199 216 227 227 228 224 227 215 207 189 200 209 210 195 204 208 205 196 172 170 193 208 214 201 162
186 195 202 204 205 208 205 206 206 209 216 224 224 231 233 237 233 223 203 214 236 242 245 240 239 209 203 197 192 208 186 191 196 194 177 184 187 191 186 215 253 206 251
186 181 191 195 196 210 198 202 208 210 219 221 226 232 236 242 241 219 201 203 224 237 242 248 11 229 197 196 199 200 186 198 199 192 193 189 187 195 187 176 170 198 181
225 182 176 189 193 201 212 196 208 213 216 226 229 230 242 243 234 243 217 206 220 215 236 243 245 205 198 254 201 196 199 202 200 192 193 177 172 176 185 169 158 170 168
217 187 184 199 191 199 208 224 201 215 219 218 220 231 248 240 228 9 312 213 206 214 216 229 233 235 236 217 202 211 204 200 197 187 181 170 169 174 172 167 146 167 175
180 181 202 212 196 199 199 217 223 153 114 78 58 47 6 83 13 343 317 311 268 195 203 223 224 218 218 213 207 206 216 204 194 191 159 144 179 173 176 167 170 181 182
53 17 201 205 206 178 201 196 204 75 71 109 107 84 52 341 342 353 314 277 263 159 221 227 229 218 220 219 212 202 197 201 184 173 156 167 194 190 172 179 189 167 194
120 95 58 36 31 48 47 44 31 42 70 88 96 94 89 70 46 16 2 345 284 270 250 237 231 225 213 209 200 204 199 189 184 179 173 174 204 170 171 172 178 186 191
118 79 93 71 50 60 59 57 55 51 43 33 17 41 54 27 31 71 90 18 304 313 289 278 278 259 232 210 207 201 197 184 183 172 175 156 178 168 166 173 183 184 180
81 43 81 118 135 96 97 113 129 133 123 76 49 35 8 344 343 348 37 3 303 280 274 269 264 268 265 249 225 206 182 188 157 157 175 150 159 163 176 185 185 167 181
124 115 102 91 84 90 75 97 100 68 58 29 84 96 91 312 346 8 345 350 264 292 331 309 286 270 256 277 252 245 194 134 127 156 165 154 167 180 182 177 183 164 164
139 121 86 96 91 59 71 54 44 55 48 27 33 151 216 270 338 302 303 320 317 307 318 312 323 312 338 108 93 69 86 108 142 160 157 158 165 172 174 174 176 175 163
48 82 80 65 58 57 74 59 51 51 42 37 34 24 12 18 1 348 329 318 325 332 340 321 298 308 39 53 59 86 115 138 149 155 165 162 160 162 165 158 152 166 164
63 59 65 63 51 59 48 66 55 39 32 30 25 4 18 3 356 346 337 318 306 330 351 8 21 64 53 54 65 89 94 146 150 140 135 150 144 139 134 124 164 168 164
69 75 84 73 65 63 57 53 46 43 32 31 23 26 23 13 9 13 13 346 337 10 45 97 70 74 86 85 91 182 144 139 137 131 131 139 139 146 158 170 172 183 172
45 52 61 65 82 82 75 63 54 53 46 33 21 16 25 31 18 9 18 18 14 4 354 186 169 215 158 186 215 139 135 138 124 117 97 113 119 137 157 168 184 176 187